Погода в Сивыс-Ях

Россия / Ханты-Мансийский автономный округ - Югра     60°09′45″N   71°42′23″E
темп.,
°C
ветер,
м/с
пор.,
м/с
влажн.,
%
обл.,
%
осадки,
мм/ч
давл.,
гПа
погр.,
м
17 мая, пн
пн1723:00+11вюв2389100 0.0 101556
02:00+11ююв3895100 1.9 1013283
05:00+11ююв2697100 1.9 1013206
08:00+16юз3580100 0.0 1011540
11:00+22з245772 0.0 1010967
14:00+25зсз484284 0.0 10092399
17:00+22сз3653100 0.1 10061095
20:00+15юз1295100 5.6 100870
18 мая, вт
вт1823:00+14ссз2697100 6.0 1008171
02:00+12ссв3698100 0.9 1008287
05:00+10св3795100 1.3 1009409
08:00+10ссв3791100 0.1 1011548
11:00+10ссв378699 0.1 1013708
14:00+11с4772100 0.1 1015866
17:00+14ссв474972 0.1 10161816
20:00+11с410545 0.0 1018524
19 мая, ср
ср1923:00+6с29684 0.0 1020195
02:00+5с24694 0.0 102175
05:00+5ссз28685 0.0 1022215
08:00+10ссз454799 0.0 1022932
11:00+11ссз4638100 0.0 10231622
14:00+12с573670 0.0 10231921
17:00+11ссв573710 0.0 10231804
20:00+7всв255021 0.0 1024176
20 мая, чт
чт2023:00+4вюв2259100 0.0 102429
02:00+5ююв1253100 0.0 102476
05:00+5ю3670100 0.3 1023310
08:00+6ю51267100 0.1 1020550
11:00+14юз5954100 0.2 1015905
14:00+20зсз31058100 0.3 10121397
17:00+17св2578100 1.1 1010121
20:00+18юз12759 0.2 101022
21 мая, пт
пт2123:00+17з516710 0.2 1009373
02:00+16з4147474 0.0 1010322
05:00+16з411744 0.0 1010252
08:00+22зсз49512 0.0 1011605
11:00+27зсз59365 0.0 10101426
14:00+25ссз5940100 0.0 10111126
17:00+27ссз493657 0.0 10122632
20:00+20св377196 0.0 1014279